Home > Weather > East Hants > Past weeks

Flag for Canada Past Weather in East Hants, Nova Scotia, Canada — Yesterday and Last 2 Weeks

Now
46 °F

Thunderstorms. Fog.


Feels Like: 44 °F
Forecast: 45 / 71 °F
Wind: 6 mph from South

Location: Halifax International Airport

Current Time: May 28, 2016 at 5:17:15 AM

Latest Report: May 28, 2016 at 4:00 AM


Visibility: 1 mi

Pressure: 30.05 "Hg

Humidity: 100%

Dew Point: 46 °F

Location of East HantsLocation

Past Weather in East Hants — Graph

°F

East Hants Temperature Yesterday

Maximum temperature yesterday: 55 °F (at 1:00 PM)
Minimum temperature yesterday: 43 °F (at 2:00 AM)
Average temperature yesterday: 47 °F

High & Low Weather Summary for the Past Weeks

 TemperatureHumidityPressure
High79 °F (May 21, 2:00 PM)100% (May 14, 1:47 AM)30.26 "Hg (May 14, 1:47 AM)
Low34 °F (May 13, 6:00 AM)22% (May 21, 5:00 PM)29.48 "Hg (May 15, 7:00 PM)
Average53 °F78%29.93 "Hg
* Reported May 13 4:00 AM — May 28 4:00 AM, East Hants, Weather by CustomWeather, © 2016

Note: Actual official high and low records may vary slightly from our data, if they occured in-between our weather recording intervals... More about our weather records

Advertising

East Hants Weather History for the Previous 24 Hours

Scroll right to see more
 ConditionsComfort  
Time TempWeatherWind HumidityBarometerVisibility
4:00 AM
Sat, May 28
46 °FThunderstorms. Fog.6 mph100%30.05 "Hg1 mi
3:51 AM46 °FThunderstorms. Fog.5 mph100%30.07 "Hg1 mi
3:00 AM46 °FFog.5 mph100%30.09 "Hg1 mi
2:00 AM46 °FFog.10 mph100%30.04 "Hg1 mi
1:00 AM46 °FFog.10 mph100%30.07 "Hg2 mi
12:00 AM46 °FFog.9 mph100%30.10 "Hg1 mi
11:00 PM
Fri, May 27
46 °FFog.12 mph93%30.11 "Hg5 mi
10:00 PM46 °FMostly cloudy.10 mph93%30.13 "Hg8 mi
9:00 PM46 °FLow clouds.10 mph93%30.15 "Hg10 mi
8:00 PM46 °FLow clouds.10 mph100%30.16 "Hg10 mi
7:00 PM48 °FLow clouds.10 mph94%30.17 "Hg15 mi
6:00 PM48 °FLow clouds.13 mph94%30.18 "Hg15 mi
5:00 PM50 °FMostly cloudy.14 mph88%30.20 "Hg15 mi
4:45 PM50 °FSprinkles. Mostly cloudy.12 mph88%30.21 "Hg15 mi
4:00 PM54 °FSprinkles. Mostly cloudy.9 mph82%30.23 "Hg15 mi
3:00 PM54 °FOvercast.6 mph82%30.24 "Hg15 mi
2:00 PM54 °FOvercast.9 mph82%30.24 "Hg15 mi
1:00 PM55 °FOvercast.5 mph77%30.24 "Hg15 mi
12:00 PM52 °FOvercast.2 mph82%30.25 "Hg15 mi
11:00 AM48 °FLow clouds.No wind87%30.25 "Hg15 mi
10:00 AM46 °FFog.6 mph93%30.25 "Hg4 mi
9:00 AM45 °FFog.8 mph93%30.26 "Hg3 mi
8:00 AM43 °FFog.8 mph100%30.25 "Hg3 mi
7:00 AM43 °FLow clouds.8 mph93%30.25 "Hg15 mi
6:00 AM43 °FLow clouds.12 mph93%30.23 "Hg15 mi
5:00 AM43 °FLow clouds.12 mph93%30.21 "Hg10 mi
Weather by CustomWeather, © 2016

See weather overviewHow to use our weather pages